Location: Guayaquil
(2.1667°S, 79.9000°W)
Time: 21:59:08
(UTC-05:00)

ISS - Visible Passes

Search period start: 20 November 2017 00:00
Search period end: 30 November 2017 00:00
Orbit: 402 x 407 km, 51.6° (Epoch: 21 November)

Date Brightness Start Highest point End Pass type
(mag) Time Alt. Az. Time Alt. Az. Time Alt. Az.
20 Nov -3.1 18:48:51 10° SW 18:52:04 52° NW 18:55:15 10° NNE visible
22 Nov -1.3 05:32:18 10° N 05:34:39 18° NE 05:36:59 10° E visible
22 Nov -1.0 18:42:09 10° W 18:43:53 14° NW 18:45:37 10° NNW visible
24 Nov -3.8 05:23:10 10° NNW 05:26:25 78° NE 05:29:40 10° SE visible
25 Nov -2.0 04:33:23 23° NNE 04:34:10 25° NE 04:36:56 10° ESE visible
26 Nov -2.4 05:16:30 16° W 05:18:10 23° SW 05:20:50 10° S visible
27 Nov -2.7 04:26:51 40° SSE 04:26:51 40° SSE 04:29:06 10° SSE visible
